Weather in Podberezovo

Russia / Oryol Oblast     53°15′51″N   36°37′35″E
temp.,
°C
wind,
m/s
gust,
m/s
humid.,
%
clouds,
%
prec.,
mm/h
press.,
hPa
HPBL,
m
6 march, sat
sat600:00−9wnw1288100 0.0 101621
03:00−9wsw229281 0.0 101721
06:00−10w239599 0.3 101641
09:00−9nw359687 0.4 1018203
12:00−5nnw5789100 0.1 1018605
15:00−5nw478263 0.1 1018827
18:00−9wnw228512 0.0 101821
21:00−10w34876 0.0 101939
7 march, sun
sun700:00−11wsw47881 0.0 1018118
03:00−11sw612890 0.0 1016255
06:00−9sw8178656 0.0 1012465
09:00−6sw10188478 0.0 1009723
12:00−4sw121993100 0.3 10031173
15:00−1wsw121991100 1.1 10011365
18:00−4nw61079100 2.4 1001867
21:00−10wsw447767 2.4 100351
8 march, mon
mon800:00−8sw51285100 0.0 1001261
03:00−8sw6149293 0.0 999394
06:00−6wsw8159396 0.1 9981023
09:00−10w9168275 0.3 1001962
12:00−7nw81283100 0.3 10041074
15:00−6wnw81180100 0.4 10071193
18:00−8w5128368 0.0 1008321
21:00−9w5119078 0.0 1011269
9 march, tue
tue900:00−10w359690 0.1 1012111
03:00−11nw369694 0.1 1013155
06:00−14nw369799 0.1 1015101
09:00−13nw579498 0.1 1017326
12:00−11nw5689100 0.1 1018623
15:00−11nw5787100 0.1 1019621
18:00−13nw338862 0.0 102025
21:00−15wsw238931 0.0 102220
10 march, wed
wed1000:00−14wsw449054 0.0 102172
03:00−12wsw5109176 0.0 1020266
06:00−12wsw6129094 0.0 1018318
09:00−9w6138897 0.0 1018486
12:00−6w6985100 0.0 1019761
15:00−8nne5694100 0.4 1020323
18:00−11ne4694100 0.4 1021349
21:00−14ene4894100 0.8 1023315